Time,TemperatureF,DewpointF,PressureIn,WindDirection,WindDirectionDegrees,WindSpeedMPH,WindSpeedGustMPH,Humidity,HourlyPrecipIn,Conditions,Clouds,dailyrainin,SoftwareType,DateUTC
2013-02-08 00:00:00,32.9,0.0,29.81,North,0,0.0,0.0,0,0.54,,,1.65,WUHU216HW,2013-02-08 05:00:00,
2013-02-08 00:01:00,32.9,0.0,29.81,North,0,0.0,0.0,0,0.54,,,0.00,WUHU216HW,2013-02-08 05:01:00,
2013-02-08 00:06:00,32.8,0.0,29.81,North,0,0.0,0.0,0,0.56,,,0.02,WUHU216HW,2013-02-08 05:06:00,
2013-02-08 00:11:00,32.8,0.0,29.81,North,0,0.0,0.0,0,0.59,,,0.04,WUHU216HW,2013-02-08 05:11:00,
2013-02-08 00:16:00,32.9,0.0,29.80,North,0,0.0,0.0,0,0.59,,,0.04,WUHU216HW,2013-02-08 05:16:00,
2013-02-08 00:21:00,32.8,0.0,29.80,North,0,0.0,0.0,0,0.61,,,0.07,WUHU216HW,2013-02-08 05:21:00,
2013-02-08 00:26:00,32.8,0.0,29.80,North,0,0.0,0.0,0,0.63,,,0.09,WUHU216HW,2013-02-08 05:26:00,
2013-02-08 00:31:00,32.8,0.0,29.80,North,0,0.0,0.0,0,0.63,,,0.09,WUHU216HW,2013-02-08 05:31:00,
2013-02-08 00:36:00,32.8,0.0,29.80,North,0,0.0,0.0,0,0.65,,,0.11,WUHU216HW,2013-02-08 05:36:00,
2013-02-08 00:41:00,32.8,0.0,29.80,North,0,0.0,0.0,0,0.65,,,0.11,WUHU216HW,2013-02-08 05:41:00,
2013-02-08 00:46:00,32.8,0.0,29.79,North,0,0.0,0.0,0,0.67,,,0.13,WUHU216HW,2013-02-08 05:46:00,
2013-02-08 00:51:00,32.8,0.0,29.79,North,0,0.0,0.0,0,0.69,,,0.15,WUHU216HW,2013-02-08 05:51:00,
2013-02-08 00:56:00,32.8,0.0,29.79,North,0,0.0,0.0,0,0.69,,,0.15,WUHU216HW,2013-02-08 05:56:00,
2013-02-08 01:01:00,32.6,0.0,29.79,North,0,0.0,0.0,0,0.15,,,0.15,WUHU216HW,2013-02-08 06:01:00,
2013-02-08 01:06:00,32.6,0.0,29.78,North,0,0.0,0.0,0,0.15,,,0.18,WUHU216HW,2013-02-08 06:06:00,
2013-02-08 01:11:00,32.6,0.0,29.78,North,0,0.0,0.0,0,0.15,,,0.20,WUHU216HW,2013-02-08 06:11:00,
2013-02-08 01:16:00,32.4,0.0,29.78,North,0,0.0,0.0,0,0.13,,,0.20,WUHU216HW,2013-02-08 06:16:00,
2013-02-08 01:21:00,32.4,0.0,29.77,North,0,0.0,0.0,0,0.11,,,0.20,WUHU216HW,2013-02-08 06:21:00,
2013-02-08 01:26:00,32.4,0.0,29.77,North,0,0.0,0.0,0,0.13,,,0.22,WUHU216HW,2013-02-08 06:26:00,
2013-02-08 01:31:00,32.2,0.0,29.77,North,0,0.0,0.0,0,0.11,,,0.22,WUHU216HW,2013-02-08 06:31:00,
2013-02-08 01:36:00,32.2,0.0,29.76,North,0,0.0,0.0,0,0.11,,,0.22,WUHU216HW,2013-02-08 06:36:00,
2013-02-08 01:41:00,32.2,0.0,29.76,North,0,0.0,0.0,0,0.11,,,0.24,WUHU216HW,2013-02-08 06:41:00,
2013-02-08 01:46:00,32.2,0.0,29.76,North,0,0.0,0.0,0,0.11,,,0.24,WUHU216HW,2013-02-08 06:46:00,
2013-02-08 01:51:00,32.2,0.0,29.76,North,0,0.0,0.0,0,0.09,,,0.24,WUHU216HW,2013-02-08 06:51:00,
2013-02-08 01:56:00,32.2,0.0,29.75,North,0,0.0,0.0,0,0.09,,,0.24,WUHU216HW,2013-02-08 06:56:00,
2013-02-08 02:01:00,32.2,0.0,29.75,North,0,0.0,0.0,0,0.09,,,0.26,WUHU216HW,2013-02-08 07:01:00,
2013-02-08 02:06:00,32.2,0.0,29.75,North,0,0.0,0.0,0,0.06,,,0.26,WUHU216HW,2013-02-08 07:06:00,
2013-02-08 02:11:00,32.2,0.0,29.75,North,0,0.0,0.0,0,0.06,,,0.26,WUHU216HW,2013-02-08 07:11:00,
2013-02-08 02:16:00,32.2,0.0,29.74,North,0,0.0,0.0,0,0.06,,,0.26,WUHU216HW,2013-02-08 07:16:00,
2013-02-08 02:21:00,32.2,0.0,29.74,North,0,0.0,0.0,0,0.04,,,0.26,WUHU216HW,2013-02-08 07:21:00,
2013-02-08 02:26:00,32.2,0.0,29.74,North,0,0.0,0.0,0,0.06,,,0.28,WUHU216HW,2013-02-08 07:26:00,
2013-02-08 02:31:00,32.2,0.0,29.74,North,0,0.0,0.0,0,0.06,,,0.28,WUHU216HW,2013-02-08 07:31:00,
2013-02-08 02:36:00,0.0,0.0,29.73,North,0,0.0,0.0,0,0.06,,,0.28,WUHU216HW,2013-02-08 07:36:00,
2013-02-08 02:41:00,0.0,0.0,29.73,North,0,0.0,0.0,0,0.04,,,0.28,WUHU216HW,2013-02-08 07:41:00,
2013-02-08 02:46:00,32.2,0.0,29.72,North,0,0.0,0.0,0,0.06,,,0.30,WUHU216HW,2013-02-08 07:46:00,
2013-02-08 02:51:00,32.2,0.0,29.72,North,0,0.0,0.0,0,0.06,,,0.30,WUHU216HW,2013-02-08 07:51:00,
2013-02-08 02:56:00,32.2,0.0,29.72,North,0,0.0,0.0,0,0.06,,,0.30,WUHU216HW,2013-02-08 07:56:00,
2013-02-08 03:01:00,32.2,0.0,29.72,North,0,0.0,0.0,0,0.04,,,0.30,WUHU216HW,2013-02-08 08:01:00,
2013-02-08 03:06:00,32.2,0.0,29.72,North,0,0.0,0.0,0,0.04,,,0.30,WUHU216HW,2013-02-08 08:06:00,
2013-02-08 03:11:00,32.4,0.0,29.72,North,0,0.0,0.0,0,0.04,,,0.30,WUHU216HW,2013-02-08 08:11:00,
2013-02-08 03:16:00,32.4,0.0,29.71,North,0,0.0,0.0,0,0.04,,,0.30,WUHU216HW,2013-02-08 08:16:00,
2013-02-08 03:21:00,32.4,0.0,29.70,North,0,0.0,0.0,0,0.02,,,0.30,WUHU216HW,2013-02-08 08:21:00,
2013-02-08 03:26:00,32.4,0.0,29.69,North,0,0.0,0.0,0,0.02,,,0.30,WUHU216HW,2013-02-08 08:26:00,
2013-02-08 03:31:00,32.4,0.0,29.69,North,0,0.0,0.0,0,0.02,,,0.30,WUHU216HW,2013-02-08 08:31:00,
2013-02-08 03:36:00,0.0,0.0,29.70,North,0,0.0,0.0,0,0.02,,,0.30,WUHU216HW,2013-02-08 08:36:00,
2013-02-08 03:41:00,0.0,0.0,29.70,North,0,0.0,0.0,0,0.02,,,0.30,WUHU216HW,2013-02-08 08:41:00,
2013-02-08 03:46:00,32.4,0.0,29.69,North,0,0.0,0.0,0,0.00,,,0.30,WUHU216HW,2013-02-08 08:46:00,
2013-02-08 03:51:00,32.4,0.0,29.69,North,0,0.0,0.0,0,0.00,,,0.30,WUHU216HW,2013-02-08 08:51:00,
2013-02-08 03:56:00,32.4,0.0,29.69,North,0,0.0,0.0,0,0.00,,,0.30,WUHU216HW,2013-02-08 08:56:00,
2013-02-08 04:01:00,32.6,0.0,29.69,North,0,0.0,0.0,0,0.00,,,0.30,WUHU216HW,2013-02-08 09:01:00,
2013-02-08 04:06:00,32.6,0.0,29.69,North,0,0.0,0.0,0,0.00,,,0.30,WUHU216HW,2013-02-08 09:06:00,
2013-02-08 04:11:00,32.4,0.0,29.69,North,0,0.0,0.0,0,0.00,,,0.30,WUHU216HW,2013-02-08 09:11:00,
2013-02-08 04:16:00,32.4,0.0,29.69,North,0,0.0,0.0,0,0.00,,,0.30,WUHU216HW,2013-02-08 09:16:00,
2013-02-08 04:21:00,32.6,0.0,29.70,North,0,0.0,0.0,0,0.00,,,0.30,WUHU216HW,2013-02-08 09:21:00,
2013-02-08 04:26:00,32.4,0.0,29.70,North,0,0.0,0.0,0,0.00,,,0.30,WUHU216HW,2013-02-08 09:26:00,
2013-02-08 04:31:00,32.4,0.0,29.69,North,0,0.0,0.0,0,0.00,,,0.30,WUHU216HW,2013-02-08 09:31:00,
2013-02-08 04:36:00,32.4,0.0,29.70,North,0,0.0,0.0,0,0.00,,,0.30,WUHU216HW,2013-02-08 09:36:00,
2013-02-08 04:41:00,0.0,0.0,29.70,North,0,0.0,0.0,0,0.00,,,0.30,WUHU216HW,2013-02-08 09:41:00,
2013-02-08 04:46:00,0.0,0.0,29.70,North,0,0.0,0.0,0,0.00,,,0.30,WUHU216HW,2013-02-08 09:46:00,
2013-02-08 04:51:00,32.4,0.0,29.69,North,0,0.0,0.0,0,0.00,,,0.30,WUHU216HW,2013-02-08 09:51:00,
2013-02-08 04:56:00,32.6,0.0,29.70,North,0,0.0,0.0,0,0.00,,,0.30,WUHU216HW,2013-02-08 09:56:00,
2013-02-08 05:01:00,32.4,0.0,29.70,North,0,0.0,0.0,0,0.00,,,0.30,WUHU216HW,2013-02-08 10:01:00,
2013-02-08 05:06:00,32.6,0.0,29.70,North,0,0.0,0.0,0,0.00,,,0.30,WUHU216HW,2013-02-08 10:06:00,
2013-02-08 05:11:00,32.6,0.0,29.70,North,0,0.0,0.0,0,0.00,,,0.30,WUHU216HW,2013-02-08 10:11:00,
2013-02-08 05:16:00,0.0,0.0,29.69,North,0,0.0,0.0,0,0.00,,,0.30,WUHU216HW,2013-02-08 10:16:00,
2013-02-08 05:21:00,0.0,0.0,29.69,North,0,0.0,0.0,0,0.00,,,0.30,WUHU216HW,2013-02-08 10:21:00,
2013-02-08 05:26:00,32.8,0.0,29.69,North,0,0.0,0.0,0,0.00,,,0.30,WUHU216HW,2013-02-08 10:26:00,
2013-02-08 05:31:00,32.8,0.0,29.69,North,0,0.0,0.0,0,0.00,,,0.30,WUHU216HW,2013-02-08 10:31:00,
2013-02-08 05:36:00,32.8,0.0,29.69,North,0,0.0,0.0,0,0.00,,,0.30,WUHU216HW,2013-02-08 10:36:00,
2013-02-08 05:41:00,32.8,0.0,29.69,North,0,0.0,0.0,0,0.00,,,0.30,WUHU216HW,2013-02-08 10:41:00,
2013-02-08 05:46:00,32.8,0.0,29.68,North,0,0.0,0.0,0,0.00,,,0.30,WUHU216HW,2013-02-08 10:46:00,
2013-02-08 05:51:00,32.8,0.0,29.69,North,0,0.0,0.0,0,0.00,,,0.30,WUHU216HW,2013-02-08 10:51:00,
2013-02-08 05:56:00,32.8,0.0,29.68,North,0,0.0,0.0,0,0.00,,,0.30,WUHU216HW,2013-02-08 10:56:00,
2013-02-08 06:01:00,32.8,0.0,29.68,North,0,0.0,0.0,0,0.00,,,0.30,WUHU216HW,2013-02-08 11:01:00,
2013-02-08 06:06:00,0.0,0.0,29.68,North,0,0.0,0.0,0,0.00,,,0.30,WUHU216HW,2013-02-08 11:06:00,
2013-02-08 06:11:00,0.0,0.0,29.68,North,0,0.0,0.0,0,0.00,,,0.30,WUHU216HW,2013-02-08 11:11:00,
2013-02-08 06:16:00,0.0,0.0,29.69,North,0,0.0,0.0,0,0.00,,,0.30,WUHU216HW,2013-02-08 11:16:00,
2013-02-08 06:21:00,0.0,0.0,29.69,North,0,0.0,0.0,0,0.00,,,0.30,WUHU216HW,2013-02-08 11:21:00,
2013-02-08 06:26:00,0.0,0.0,29.69,North,0,0.0,0.0,0,0.00,,,0.30,WUHU216HW,2013-02-08 11:26:00,
2013-02-08 06:31:00,0.0,0.0,29.69,North,0,0.0,0.0,0,0.00,,,0.30,WUHU216HW,2013-02-08 11:31:00,
2013-02-08 06:36:00,0.0,0.0,29.69,North,0,0.0,0.0,0,0.00,,,0.30,WUHU216HW,2013-02-08 11:36:00,
2013-02-08 06:41:00,0.0,0.0,29.69,North,0,0.0,0.0,0,0.00,,,0.30,WUHU216HW,2013-02-08 11:41:00,
2013-02-08 06:46:00,0.0,0.0,29.68,North,0,0.0,0.0,0,0.00,,,0.30,WUHU216HW,2013-02-08 11:46:00,
2013-02-08 06:51:00,0.0,0.0,29.68,North,0,0.0,0.0,0,0.00,,,0.30,WUHU216HW,2013-02-08 11:51:00,
2013-02-08 06:56:00,0.0,0.0,29.68,North,0,0.0,0.0,0,0.00,,,0.30,WUHU216HW,2013-02-08 11:56:00,
2013-02-08 07:01:00,0.0,0.0,29.68,North,0,0.0,0.0,0,0.00,,,0.30,WUHU216HW,2013-02-08 12:01:00,
2013-02-08 07:06:00,0.0,0.0,29.69,North,0,0.0,0.0,0,0.00,,,0.30,WUHU216HW,2013-02-08 12:06:00,
2013-02-08 07:11:00,0.0,0.0,29.69,North,0,0.0,0.0,0,0.00,,,0.30,WUHU216HW,2013-02-08 12:11:00,
2013-02-08 07:16:00,0.0,0.0,29.68,North,0,0.0,0.0,0,0.00,,,0.30,WUHU216HW,2013-02-08 12:16:00,
2013-02-08 07:21:00,0.0,0.0,29.68,North,0,0.0,0.0,0,0.00,,,0.30,WUHU216HW,2013-02-08 12:21:00,
2013-02-08 07:26:00,0.0,0.0,29.69,North,0,0.0,0.0,0,0.00,,,0.30,WUHU216HW,2013-02-08 12:26:00,
2013-02-08 07:31:00,0.0,0.0,29.68,North,0,0.0,0.0,0,0.00,,,0.30,WUHU216HW,2013-02-08 12:31:00,
2013-02-08 07:36:00,0.0,0.0,29.68,North,0,0.0,0.0,0,0.00,,,0.30,WUHU216HW,2013-02-08 12:36:00,
2013-02-08 07:41:00,0.0,0.0,29.68,North,0,0.0,0.0,0,0.00,,,0.30,WUHU216HW,2013-02-08 12:41:00,
2013-02-08 07:46:00,0.0,0.0,29.68,North,0,0.0,0.0,0,0.00,,,0.30,WUHU216HW,2013-02-08 12:46:00,
2013-02-08 07:51:00,0.0,0.0,29.69,North,0,0.0,0.0,0,0.00,,,0.30,WUHU216HW,2013-02-08 12:51:00,
2013-02-08 07:56:00,0.0,0.0,29.69,North,0,0.0,0.0,0,0.00,,,0.30,WUHU216HW,2013-02-08 12:56:00,
2013-02-08 08:01:00,0.0,0.0,29.69,North,0,0.0,0.0,0,0.00,,,0.30,WUHU216HW,2013-02-08 13:01:00,
2013-02-08 08:06:00,0.0,0.0,29.68,North,0,0.0,0.0,0,0.00,,,0.30,WUHU216HW,2013-02-08 13:06:00,
2013-02-08 08:11:00,0.0,0.0,29.69,North,0,0.0,0.0,0,0.00,,,0.30,WUHU216HW,2013-02-08 13:11:00,
2013-02-08 08:16:00,0.0,0.0,29.68,North,0,0.0,0.0,0,0.00,,,0.30,WUHU216HW,2013-02-08 13:16:00,
2013-02-08 08:21:00,0.0,0.0,29.68,North,0,0.0,0.0,0,0.00,,,0.30,WUHU216HW,2013-02-08 13:21:00,
2013-02-08 08:26:00,0.0,0.0,29.69,North,0,0.0,0.0,0,0.00,,,0.30,WUHU216HW,2013-02-08 13:26:00,
2013-02-08 08:31:00,0.0,0.0,29.69,North,0,0.0,0.0,0,0.00,,,0.30,WUHU216HW,2013-02-08 13:31:00,
2013-02-08 08:36:00,0.0,0.0,29.69,North,0,0.0,0.0,0,0.00,,,0.30,WUHU216HW,2013-02-08 13:36:00,
2013-02-08 08:41:00,0.0,0.0,29.69,North,0,0.0,0.0,0,0.00,,,0.30,WUHU216HW,2013-02-08 13:41:00,
2013-02-08 08:46:00,0.0,0.0,29.69,North,0,0.0,0.0,0,0.00,,,0.30,WUHU216HW,2013-02-08 13:46:00,
2013-02-08 08:51:00,0.0,0.0,29.70,North,0,0.0,0.0,0,0.00,,,0.30,WUHU216HW,2013-02-08 13:51:00,
2013-02-08 08:56:00,0.0,0.0,29.69,North,0,0.0,0.0,0,0.00,,,0.30,WUHU216HW,2013-02-08 13:56:00,
2013-02-08 09:01:00,0.0,0.0,29.69,North,0,0.0,0.0,0,0.00,,,0.30,WUHU216HW,2013-02-08 14:01:00,
2013-02-08 09:06:00,0.0,0.0,29.70,North,0,0.0,0.0,0,0.00,,,0.30,WUHU216HW,2013-02-08 14:06:00,
2013-02-08 09:11:00,0.0,0.0,29.70,North,0,0.0,0.0,0,0.00,,,0.30,WUHU216HW,2013-02-08 14:11:00,
2013-02-08 09:16:00,0.0,0.0,29.70,North,0,0.0,0.0,0,0.00,,,0.30,WUHU216HW,2013-02-08 14:16:00,
2013-02-08 09:21:00,0.0,0.0,29.70,North,0,0.0,0.0,0,0.00,,,0.30,WUHU216HW,2013-02-08 14:21:00,
2013-02-08 09:26:00,0.0,0.0,29.70,North,0,0.0,0.0,0,0.00,,,0.30,WUHU216HW,2013-02-08 14:26:00,
2013-02-08 09:31:00,0.0,0.0,29.70,North,0,0.0,0.0,0,0.00,,,0.30,WUHU216HW,2013-02-08 14:31:00,
2013-02-08 09:36:00,0.0,0.0,29.69,North,0,0.0,0.0,0,0.00,,,0.30,WUHU216HW,2013-02-08 14:36:00,
2013-02-08 09:41:00,0.0,0.0,29.69,North,0,0.0,0.0,0,0.00,,,0.30,WUHU216HW,2013-02-08 14:41:00,
2013-02-08 09:46:00,0.0,0.0,29.68,North,0,0.0,0.0,0,0.00,,,0.30,WUHU216HW,2013-02-08 14:46:00,
2013-02-08 09:51:00,0.0,0.0,29.69,North,0,0.0,0.0,0,0.00,,,0.30,WUHU216HW,2013-02-08 14:51:00,
2013-02-08 09:56:00,0.0,0.0,29.68,North,0,0.0,0.0,0,0.00,,,0.30,WUHU216HW,2013-02-08 14:56:00,
2013-02-08 10:01:00,0.0,0.0,29.68,North,0,0.0,0.0,0,0.00,,,0.30,WUHU216HW,2013-02-08 15:01:00,
2013-02-08 10:06:00,0.0,0.0,29.68,North,0,0.0,0.0,0,0.00,,,0.30,WUHU216HW,2013-02-08 15:06:00,
2013-02-08 10:11:00,0.0,0.0,29.68,North,0,0.0,0.0,0,0.00,,,0.30,WUHU216HW,2013-02-08 15:11:00,
2013-02-08 10:16:00,0.0,0.0,29.68,North,0,0.0,0.0,0,0.00,,,0.30,WUHU216HW,2013-02-08 15:16:00,
2013-02-08 10:21:00,0.0,0.0,29.67,North,0,0.0,0.0,0,0.00,,,0.30,WUHU216HW,2013-02-08 15:21:00,
2013-02-08 10:26:00,0.0,0.0,29.68,North,0,0.0,0.0,0,0.00,,,0.30,WUHU216HW,2013-02-08 15:26:00,
2013-02-08 10:31:00,40.7,0.0,29.68,North,0,0.0,0.0,0,0.00,,,0.30,WUHU216HW,2013-02-08 15:31:00,
2013-02-08 10:36:00,41.2,0.0,29.68,North,0,0.0,0.0,0,0.00,,,0.30,WUHU216HW,2013-02-08 15:36:00,
2013-02-08 10:41:00,41.4,0.0,29.67,North,0,0.0,0.0,0,0.00,,,0.30,WUHU216HW,2013-02-08 15:41:00,
2013-02-08 10:46:00,41.0,0.0,29.67,North,0,0.0,0.0,0,0.00,,,0.30,WUHU216HW,2013-02-08 15:46:00,
2013-02-08 10:51:00,41.0,0.0,29.67,North,0,0.0,0.0,0,0.00,,,0.30,WUHU216HW,2013-02-08 15:51:00,
2013-02-08 10:56:00,41.8,0.0,29.68,North,0,0.0,0.0,0,0.00,,,0.30,WUHU216HW,2013-02-08 15:56:00,
2013-02-08 11:01:00,42.5,0.0,29.68,North,0,0.0,0.0,0,0.00,,,0.30,WUHU216HW,2013-02-08 16:01:00,
2013-02-08 11:06:00,42.7,0.0,29.68,North,0,0.0,0.0,0,0.00,,,0.30,WUHU216HW,2013-02-08 16:06:00,
2013-02-08 11:11:00,42.8,0.0,29.68,North,0,0.0,0.0,0,0.00,,,0.30,WUHU216HW,2013-02-08 16:11:00,
2013-02-08 11:16:00,43.6,0.0,29.67,North,0,0.0,0.0,0,0.00,,,0.30,WUHU216HW,2013-02-08 16:16:00,
2013-02-08 11:21:00,43.6,0.0,29.67,North,0,0.0,0.0,0,0.00,,,0.30,WUHU216HW,2013-02-08 16:21:00,
2013-02-08 11:26:00,43.6,0.0,29.67,North,0,0.0,0.0,0,0.00,,,0.30,WUHU216HW,2013-02-08 16:26:00,
2013-02-08 11:31:00,44.1,0.0,29.67,North,0,0.0,0.0,0,0.00,,,0.30,WUHU216HW,2013-02-08 16:31:00,
2013-02-08 11:36:00,44.8,0.0,29.67,North,0,0.0,0.0,0,0.00,,,0.30,WUHU216HW,2013-02-08 16:36:00,
2013-02-08 11:41:00,44.3,0.0,29.66,North,0,0.0,0.0,0,0.00,,,0.30,WUHU216HW,2013-02-08 16:41:00,
2013-02-08 11:46:00,44.1,0.0,29.67,North,0,0.0,0.0,0,0.00,,,0.30,WUHU216HW,2013-02-08 16:46:00,
2013-02-08 11:51:00,44.1,0.0,29.67,North,0,0.0,0.0,0,0.00,,,0.30,WUHU216HW,2013-02-08 16:51:00,
2013-02-08 11:56:00,0.0,0.0,29.67,North,0,0.0,0.0,0,0.00,,,0.30,WUHU216HW,2013-02-08 16:56:00,
2013-02-08 12:02:00,0.0,0.0,29.66,North,0,0.0,0.0,0,0.00,,,0.30,WUHU216HW,2013-02-08 17:02:00,
2013-02-08 12:07:00,44.6,0.0,29.66,North,0,0.0,0.0,0,0.00,,,0.30,WUHU216HW,2013-02-08 17:07:00,
2013-02-08 12:12:00,45.5,0.0,29.66,North,0,0.0,0.0,0,0.00,,,0.30,WUHU216HW,2013-02-08 17:12:00,
2013-02-08 12:17:00,45.5,0.0,29.65,North,0,0.0,0.0,0,0.00,,,0.30,WUHU216HW,2013-02-08 17:17:00,
2013-02-08 12:22:00,45.4,0.0,29.65,North,0,0.0,0.0,0,0.00,,,0.30,WUHU216HW,2013-02-08 17:22:00,
2013-02-08 12:27:00,0.0,0.0,29.65,North,0,0.0,0.0,0,0.00,,,0.30,WUHU216HW,2013-02-08 17:27:00,
2013-02-08 12:32:00,0.0,0.0,29.65,North,0,0.0,0.0,0,0.00,,,0.30,WUHU216HW,2013-02-08 17:32:00,
2013-02-08 12:37:00,46.1,0.0,29.65,North,0,0.0,0.0,0,0.00,,,0.30,WUHU216HW,2013-02-08 17:37:00,
2013-02-08 12:42:00,46.8,0.0,29.65,North,0,0.0,0.0,0,0.00,,,0.30,WUHU216HW,2013-02-08 17:42:00,
2013-02-08 12:47:00,46.8,0.0,29.65,North,0,0.0,0.0,0,0.00,,,0.30,WUHU216HW,2013-02-08 17:47:00,
2013-02-08 12:52:00,0.0,0.0,29.64,North,0,0.0,0.0,0,0.00,,,0.30,WUHU216HW,2013-02-08 17:52:00,
2013-02-08 12:57:00,0.0,0.0,29.64,North,0,0.0,0.0,0,0.00,,,0.30,WUHU216HW,2013-02-08 17:57:00,
2013-02-08 13:02:00,47.5,0.0,29.64,North,0,0.0,0.0,0,0.00,,,0.30,WUHU216HW,2013-02-08 18:02:00,
2013-02-08 13:07:00,0.0,0.0,29.64,North,0,0.0,0.0,0,0.00,,,0.30,WUHU216HW,2013-02-08 18:07:00,
2013-02-08 13:12:00,0.0,0.0,29.64,North,0,0.0,0.0,0,0.00,,,0.30,WUHU216HW,2013-02-08 18:12:00,
2013-02-08 13:17:00,48.6,0.0,29.64,North,0,0.0,0.0,0,0.00,,,0.30,WUHU216HW,2013-02-08 18:17:00,
2013-02-08 13:22:00,48.6,0.0,29.64,North,0,0.0,0.0,0,0.00,,,0.30,WUHU216HW,2013-02-08 18:22:00,
2013-02-08 13:27:00,48.6,0.0,29.63,North,0,0.0,0.0,0,0.00,,,0.30,WUHU216HW,2013-02-08 18:27:00,
2013-02-08 13:32:00,48.4,0.0,29.63,North,0,0.0,0.0,0,0.00,,,0.30,WUHU216HW,2013-02-08 18:32:00,
2013-02-08 13:37:00,48.4,0.0,29.63,North,0,0.0,0.0,0,0.00,,,0.30,WUHU216HW,2013-02-08 18:37:00,
2013-02-08 13:42:00,0.0,0.0,29.63,North,0,0.0,0.0,0,0.00,,,0.30,WUHU216HW,2013-02-08 18:42:00,
2013-02-08 13:47:00,0.0,0.0,29.63,North,0,0.0,0.0,0,0.00,,,0.30,WUHU216HW,2013-02-08 18:47:00,
2013-02-08 13:52:00,48.8,0.0,29.63,North,0,0.0,0.0,0,0.00,,,0.30,WUHU216HW,2013-02-08 18:52:00,
2013-02-08 13:57:00,49.1,0.0,29.63,North,0,0.0,0.0,0,0.00,,,0.30,WUHU216HW,2013-02-08 18:57:00,
2013-02-08 14:02:00,49.1,0.0,29.63,North,0,0.0,0.0,0,0.00,,,0.30,WUHU216HW,2013-02-08 19:02:00,
2013-02-08 14:07:00,49.0,0.0,29.62,North,0,0.0,0.0,0,0.00,,,0.30,WUHU216HW,2013-02-08 19:07:00,
2013-02-08 14:12:00,49.0,0.0,29.63,North,0,0.0,0.0,0,0.00,,,0.30,WUHU216HW,2013-02-08 19:12:00,
2013-02-08 14:17:00,49.1,0.0,29.63,North,0,0.0,0.0,0,0.00,,,0.30,WUHU216HW,2013-02-08 19:17:00,
2013-02-08 14:22:00,49.0,0.0,29.63,North,0,0.0,0.0,0,0.00,,,0.30,WUHU216HW,2013-02-08 19:22:00,
2013-02-08 14:27:00,49.0,0.0,29.62,North,0,0.0,0.0,0,0.00,,,0.30,WUHU216HW,2013-02-08 19:27:00,
2013-02-08 14:32:00,49.1,0.0,29.62,North,0,0.0,0.0,0,0.00,,,0.30,WUHU216HW,2013-02-08 19:32:00,
2013-02-08 14:37:00,49.3,0.0,29.62,North,0,0.0,0.0,0,0.00,,,0.30,WUHU216HW,2013-02-08 19:37:00,
2013-02-08 14:42:00,0.0,0.0,29.62,North,0,0.0,0.0,0,0.00,,,0.30,WUHU216HW,2013-02-08 19:42:00,
2013-02-08 14:47:00,0.0,0.0,29.62,North,0,0.0,0.0,0,0.00,,,0.30,WUHU216HW,2013-02-08 19:47:00,
2013-02-08 14:52:00,50.9,0.0,29.62,North,0,0.0,0.0,0,0.02,,,0.33,WUHU216HW,2013-02-08 19:52:00,
2013-02-08 14:57:00,51.3,0.0,29.62,North,0,0.0,0.0,0,0.02,,,0.33,WUHU216HW,2013-02-08 19:57:00,
2013-02-08 15:02:00,51.5,0.0,29.62,North,0,0.0,0.0,0,0.02,,,0.33,WUHU216HW,2013-02-08 20:02:00,
2013-02-08 15:07:00,50.4,0.0,29.62,North,0,0.0,0.0,0,0.02,,,0.33,WUHU216HW,2013-02-08 20:07:00,
2013-02-08 15:12:00,49.9,0.0,29.62,North,0,0.0,0.0,0,0.02,,,0.33,WUHU216HW,2013-02-08 20:12:00,
2013-02-08 15:17:00,49.3,0.0,29.62,North,0,0.0,0.0,0,0.02,,,0.33,WUHU216HW,2013-02-08 20:17:00,
2013-02-08 15:22:00,48.6,0.0,29.62,North,0,0.0,0.0,0,0.02,,,0.33,WUHU216HW,2013-02-08 20:22:00,
2013-02-08 15:27:00,49.3,0.0,29.62,North,0,0.0,0.0,0,0.02,,,0.33,WUHU216HW,2013-02-08 20:27:00,
2013-02-08 15:32:00,49.7,0.0,29.62,North,0,0.0,0.0,0,0.02,,,0.33,WUHU216HW,2013-02-08 20:32:00,
2013-02-08 15:37:00,49.7,0.0,29.62,North,0,0.0,0.0,0,0.02,,,0.33,WUHU216HW,2013-02-08 20:37:00,
2013-02-08 15:43:00,49.7,0.0,29.63,North,0,0.0,0.0,0,0.02,,,0.33,WUHU216HW,2013-02-08 20:43:00,
2013-02-08 15:48:00,0.0,0.0,29.63,North,0,0.0,0.0,0,0.02,,,0.33,WUHU216HW,2013-02-08 20:48:00,
2013-02-08 15:53:00,50.2,0.0,29.63,North,0,0.0,0.0,0,0.00,,,0.33,WUHU216HW,2013-02-08 20:53:00,
2013-02-08 15:58:00,51.1,0.0,29.63,North,0,0.0,0.0,0,0.00,,,0.33,WUHU216HW,2013-02-08 20:58:00,
2013-02-08 16:03:00,52.2,0.0,29.63,North,0,0.0,0.0,0,0.00,,,0.33,WUHU216HW,2013-02-08 21:03:00,
2013-02-08 16:08:00,52.6,0.0,29.63,North,0,0.0,0.0,0,0.00,,,0.33,WUHU216HW,2013-02-08 21:08:00,
2013-02-08 16:13:00,0.0,0.0,29.63,North,0,0.0,0.0,0,0.00,,,0.33,WUHU216HW,2013-02-08 21:13:00,
2013-02-08 16:18:00,0.0,0.0,29.63,North,0,0.0,0.0,0,0.00,,,0.33,WUHU216HW,2013-02-08 21:18:00,
2013-02-08 16:23:00,54.0,0.0,29.63,North,0,0.0,0.0,0,0.00,,,0.33,WUHU216HW,2013-02-08 21:23:00,
2013-02-08 16:28:00,54.4,0.0,29.63,North,0,0.0,0.0,0,0.00,,,0.33,WUHU216HW,2013-02-08 21:28:00,
2013-02-08 16:33:00,54.9,0.0,29.64,North,0,0.0,0.0,0,0.00,,,0.33,WUHU216HW,2013-02-08 21:33:00,
2013-02-08 16:38:00,54.7,0.0,29.64,North,0,0.0,0.0,0,0.00,,,0.33,WUHU216HW,2013-02-08 21:38:00,
2013-02-08 16:43:00,54.9,0.0,29.64,North,0,0.0,0.0,0,0.00,,,0.33,WUHU216HW,2013-02-08 21:43:00,
2013-02-08 16:48:00,54.9,0.0,29.64,North,0,0.0,0.0,0,0.00,,,0.33,WUHU216HW,2013-02-08 21:48:00,
2013-02-08 16:53:00,54.7,0.0,29.65,North,0,0.0,0.0,0,0.00,,,0.33,WUHU216HW,2013-02-08 21:53:00,
2013-02-08 16:58:00,54.7,0.0,29.65,North,0,0.0,0.0,0,0.00,,,0.33,WUHU216HW,2013-02-08 21:58:00,
2013-02-08 17:03:00,54.5,0.0,29.65,North,0,0.0,0.0,0,0.00,,,0.33,WUHU216HW,2013-02-08 22:03:00,
2013-02-08 17:08:00,54.4,0.0,29.65,North,0,0.0,0.0,0,0.00,,,0.33,WUHU216HW,2013-02-08 22:08:00,
2013-02-08 17:13:00,54.4,0.0,29.65,North,0,0.0,0.0,0,0.00,,,0.33,WUHU216HW,2013-02-08 22:13:00,
2013-02-08 17:18:00,54.0,0.0,29.65,North,0,0.0,0.0,0,0.00,,,0.33,WUHU216HW,2013-02-08 22:18:00,
2013-02-08 17:23:00,54.0,0.0,29.65,North,0,0.0,0.0,0,0.00,,,0.33,WUHU216HW,2013-02-08 22:23:00,
2013-02-08 17:28:00,53.6,0.0,29.66,North,0,0.0,0.0,0,0.00,,,0.33,WUHU216HW,2013-02-08 22:28:00,
2013-02-08 17:33:00,53.5,0.0,29.67,North,0,0.0,0.0,0,0.00,,,0.33,WUHU216HW,2013-02-08 22:33:00,
2013-02-08 17:38:00,52.9,0.0,29.67,North,0,0.0,0.0,0,0.00,,,0.33,WUHU216HW,2013-02-08 22:38:00,
2013-02-08 17:43:00,52.4,0.0,29.67,North,0,0.0,0.0,0,0.00,,,0.33,WUHU216HW,2013-02-08 22:43:00,
2013-02-08 17:48:00,52.2,0.0,29.68,North,0,0.0,0.0,0,0.00,,,0.33,WUHU216HW,2013-02-08 22:48:00,
2013-02-08 17:53:00,51.7,0.0,29.68,North,0,0.0,0.0,0,0.00,,,0.33,WUHU216HW,2013-02-08 22:53:00,
2013-02-08 17:58:00,51.1,0.0,29.68,North,0,0.0,0.0,0,0.00,,,0.33,WUHU216HW,2013-02-08 22:58:00,
2013-02-08 18:03:00,51.1,0.0,29.70,North,0,0.0,0.0,0,0.00,,,0.33,WUHU216HW,2013-02-08 23:03:00,
2013-02-08 18:08:00,50.8,0.0,29.70,North,0,0.0,0.0,0,0.00,,,0.33,WUHU216HW,2013-02-08 23:08:00,
2013-02-08 18:13:00,50.4,0.0,29.70,North,0,0.0,0.0,0,0.00,,,0.33,WUHU216HW,2013-02-08 23:13:00,
2013-02-08 18:18:00,49.7,0.0,29.71,North,0,0.0,0.0,0,0.00,,,0.33,WUHU216HW,2013-02-08 23:18:00,
2013-02-08 18:23:00,49.0,0.0,29.72,North,0,0.0,0.0,0,0.00,,,0.33,WUHU216HW,2013-02-08 23:23:00,
2013-02-08 18:28:00,48.4,0.0,29.72,North,0,0.0,0.0,0,0.00,,,0.33,WUHU216HW,2013-02-08 23:28:00,
2013-02-08 18:33:00,47.9,0.0,29.73,North,0,0.0,0.0,0,0.00,,,0.33,WUHU216HW,2013-02-08 23:33:00,
2013-02-08 18:38:00,47.5,0.0,29.73,North,0,0.0,0.0,0,0.00,,,0.33,WUHU216HW,2013-02-08 23:38:00,
2013-02-08 18:43:00,46.8,0.0,29.74,North,0,0.0,0.0,0,0.00,,,0.33,WUHU216HW,2013-02-08 23:43:00,
2013-02-08 18:48:00,46.4,0.0,29.74,North,0,0.0,0.0,0,0.00,,,0.33,WUHU216HW,2013-02-08 23:48:00,
2013-02-08 18:53:00,46.1,0.0,29.74,North,0,0.0,0.0,0,0.00,,,0.33,WUHU216HW,2013-02-08 23:53:00,
2013-02-08 18:58:00,45.5,0.0,29.75,North,0,0.0,0.0,0,0.00,,,0.33,WUHU216HW,2013-02-08 23:58:00,
2013-02-08 19:03:00,45.0,0.0,29.75,North,0,0.0,0.0,0,0.00,,,0.33,WUHU216HW,2013-02-09 00:03:00,
2013-02-08 19:08:00,44.8,0.0,29.75,North,0,0.0,0.0,0,0.00,,,0.33,WUHU216HW,2013-02-09 00:08:00,
2013-02-08 19:13:00,44.6,0.0,29.76,North,0,0.0,0.0,0,0.00,,,0.33,WUHU216HW,2013-02-09 00:13:00,
2013-02-08 19:18:00,44.3,0.0,29.76,North,0,0.0,0.0,0,0.00,,,0.33,WUHU216HW,2013-02-09 00:18:00,
2013-02-08 19:23:00,44.1,0.0,29.76,North,0,0.0,0.0,0,0.00,,,0.33,WUHU216HW,2013-02-09 00:23:00,
2013-02-08 19:28:00,43.9,0.0,29.77,North,0,0.0,0.0,0,0.00,,,0.33,WUHU216HW,2013-02-09 00:28:00,
2013-02-08 19:33:00,43.7,0.0,29.78,North,0,0.0,0.0,0,0.00,,,0.33,WUHU216HW,2013-02-09 00:33:00,
2013-02-08 19:38:00,43.4,0.0,29.78,North,0,0.0,0.0,0,0.00,,,0.33,WUHU216HW,2013-02-09 00:38:00,
2013-02-08 19:43:00,43.2,0.0,29.78,North,0,0.0,0.0,0,0.00,,,0.33,WUHU216HW,2013-02-09 00:43:00,
2013-02-08 19:48:00,43.0,0.0,29.78,North,0,0.0,0.0,0,0.00,,,0.33,WUHU216HW,2013-02-09 00:48:00,
2013-02-08 19:53:00,42.8,0.0,29.78,North,0,0.0,0.0,0,0.00,,,0.33,WUHU216HW,2013-02-09 00:53:00,
2013-02-08 19:58:00,42.5,0.0,29.78,North,0,0.0,0.0,0,0.00,,,0.33,WUHU216HW,2013-02-09 00:58:00,
2013-02-08 20:03:00,42.3,0.0,29.78,North,0,0.0,0.0,0,0.00,,,0.33,WUHU216HW,2013-02-09 01:03:00,
2013-02-08 20:08:00,42.3,0.0,29.78,North,0,0.0,0.0,0,0.00,,,0.33,WUHU216HW,2013-02-09 01:08:00,
2013-02-08 20:13:00,42.1,0.0,29.78,North,0,0.0,0.0,0,0.00,,,0.33,WUHU216HW,2013-02-09 01:13:00,
2013-02-08 20:18:00,42.1,0.0,29.78,North,0,0.0,0.0,0,0.00,,,0.33,WUHU216HW,2013-02-09 01:18:00,
2013-02-08 20:23:00,41.9,0.0,29.78,North,0,0.0,0.0,0,0.00,,,0.33,WUHU216HW,2013-02-09 01:23:00,
2013-02-08 20:28:00,41.9,0.0,29.79,North,0,0.0,0.0,0,0.00,,,0.33,WUHU216HW,2013-02-09 01:28:00,
2013-02-08 20:33:00,41.6,0.0,29.79,North,0,0.0,0.0,0,0.00,,,0.33,WUHU216HW,2013-02-09 01:33:00,
2013-02-08 20:38:00,41.6,0.0,29.79,North,0,0.0,0.0,0,0.00,,,0.33,WUHU216HW,2013-02-09 01:38:00,
2013-02-08 20:43:00,41.4,0.0,29.80,North,0,0.0,0.0,0,0.00,,,0.33,WUHU216HW,2013-02-09 01:43:00,
2013-02-08 20:48:00,41.2,0.0,29.80,North,0,0.0,0.0,0,0.00,,,0.33,WUHU216HW,2013-02-09 01:48:00,
2013-02-08 20:53:00,41.2,0.0,29.80,North,0,0.0,0.0,0,0.00,,,0.33,WUHU216HW,2013-02-09 01:53:00,
2013-02-08 20:58:00,41.4,0.0,29.81,North,0,0.0,0.0,0,0.00,,,0.33,WUHU216HW,2013-02-09 01:58:00,
2013-02-08 21:03:00,41.4,0.0,29.81,North,0,0.0,0.0,0,0.00,,,0.33,WUHU216HW,2013-02-09 02:03:00,
2013-02-08 21:08:00,41.4,0.0,29.81,North,0,0.0,0.0,0,0.00,,,0.33,WUHU216HW,2013-02-09 02:08:00,
2013-02-08 21:13:00,41.4,0.0,29.82,North,0,0.0,0.0,0,0.00,,,0.33,WUHU216HW,2013-02-09 02:13:00,
2013-02-08 21:18:00,41.2,0.0,29.82,North,0,0.0,0.0,0,0.00,,,0.33,WUHU216HW,2013-02-09 02:18:00,
2013-02-08 21:23:00,41.2,0.0,29.82,North,0,0.0,0.0,0,0.00,,,0.33,WUHU216HW,2013-02-09 02:23:00,
2013-02-08 21:28:00,41.2,0.0,29.82,North,0,0.0,0.0,0,0.00,,,0.33,WUHU216HW,2013-02-09 02:28:00,
2013-02-08 21:33:00,41.0,0.0,29.82,North,0,0.0,0.0,0,0.00,,,0.33,WUHU216HW,2013-02-09 02:33:00,
2013-02-08 21:38:00,40.9,0.0,29.83,North,0,0.0,0.0,0,0.00,,,0.33,WUHU216HW,2013-02-09 02:38:00,
2013-02-08 21:43:00,41.0,0.0,29.83,North,0,0.0,0.0,0,0.00,,,0.33,WUHU216HW,2013-02-09 02:43:00,
2013-02-08 21:48:00,40.7,0.0,29.83,North,0,0.0,0.0,0,0.00,,,0.33,WUHU216HW,2013-02-09 02:48:00,
2013-02-08 21:53:00,40.7,0.0,29.83,North,0,0.0,0.0,0,0.00,,,0.33,WUHU216HW,2013-02-09 02:53:00,
2013-02-08 21:58:00,40.7,0.0,29.83,North,0,0.0,0.0,0,0.00,,,0.33,WUHU216HW,2013-02-09 02:58:00,
2013-02-08 22:03:00,40.5,0.0,29.83,North,0,0.0,0.0,0,0.00,,,0.33,WUHU216HW,2013-02-09 03:03:00,
2013-02-08 22:08:00,40.3,0.0,29.83,North,0,0.0,0.0,0,0.00,,,0.33,WUHU216HW,2013-02-09 03:08:00,
2013-02-08 22:13:00,40.3,0.0,29.83,North,0,0.0,0.0,0,0.00,,,0.33,WUHU216HW,2013-02-09 03:13:00,
2013-02-08 22:18:00,40.0,0.0,29.83,North,0,0.0,0.0,0,0.00,,,0.33,WUHU216HW,2013-02-09 03:18:00,
2013-02-08 22:23:00,39.8,0.0,29.83,North,0,0.0,0.0,0,0.00,,,0.33,WUHU216HW,2013-02-09 03:23:00,
2013-02-08 22:28:00,40.0,0.0,29.84,North,0,0.0,0.0,0,0.00,,,0.33,WUHU216HW,2013-02-09 03:28:00,
2013-02-08 22:33:00,40.0,0.0,29.83,North,0,0.0,0.0,0,0.00,,,0.33,WUHU216HW,2013-02-09 03:33:00,
2013-02-08 22:38:00,40.0,0.0,29.84,North,0,0.0,0.0,0,0.00,,,0.33,WUHU216HW,2013-02-09 03:38:00,
2013-02-08 22:43:00,39.6,0.0,29.84,North,0,0.0,0.0,0,0.00,,,0.33,WUHU216HW,2013-02-09 03:43:00,
2013-02-08 22:48:00,39.6,0.0,29.84,North,0,0.0,0.0,0,0.00,,,0.33,WUHU216HW,2013-02-09 03:48:00,
2013-02-08 22:53:00,39.4,0.0,29.84,North,0,0.0,0.0,0,0.00,,,0.33,WUHU216HW,2013-02-09 03:53:00,
2013-02-08 22:58:00,39.2,0.0,29.85,North,0,0.0,0.0,0,0.00,,,0.33,WUHU216HW,2013-02-09 03:58:00,
2013-02-08 23:03:00,39.2,0.0,29.85,North,0,0.0,0.0,0,0.00,,,0.33,WUHU216HW,2013-02-09 04:03:00,
2013-02-08 23:08:00,39.2,0.0,29.84,North,0,0.0,0.0,0,0.00,,,0.33,WUHU216HW,2013-02-09 04:08:00,
2013-02-08 23:13:00,39.1,0.0,29.84,North,0,0.0,0.0,0,0.00,,,0.33,WUHU216HW,2013-02-09 04:13:00,
2013-02-08 23:18:00,38.9,0.0,29.84,North,0,0.0,0.0,0,0.00,,,0.33,WUHU216HW,2013-02-09 04:18:00,
2013-02-08 23:23:00,38.9,0.0,29.84,North,0,0.0,0.0,0,0.00,,,0.33,WUHU216HW,2013-02-09 04:23:00,
2013-02-08 23:28:00,38.7,0.0,29.84,North,0,0.0,0.0,0,0.00,,,0.33,WUHU216HW,2013-02-09 04:28:00,
2013-02-08 23:33:00,38.7,0.0,29.84,North,0,0.0,0.0,0,0.00,,,0.33,WUHU216HW,2013-02-09 04:33:00,
2013-02-08 23:38:00,38.5,0.0,29.84,North,0,0.0,0.0,0,0.00,,,0.33,WUHU216HW,2013-02-09 04:38:00,
2013-02-08 23:43:00,38.5,0.0,29.84,North,0,0.0,0.0,0,0.00,,,0.33,WUHU216HW,2013-02-09 04:43:00,
2013-02-08 23:48:00,38.2,0.0,29.84,North,0,0.0,0.0,0,0.00,,,0.33,WUHU216HW,2013-02-09 04:48:00,
2013-02-08 23:53:00,38.0,0.0,29.84,North,0,0.0,0.0,0,0.00,,,0.33,WUHU216HW,2013-02-09 04:53:00,
2013-02-08 23:58:00,38.0,0.0,29.84,North,0,0.0,0.0,0,0.00,,,0.33,WUHU216HW,2013-02-09 04:58:00,